SINAH 1

Last updated on Thu Jul 03 2025 00:02:29 GMT+0000 (Coordinated Universal Time)

1 28893U 05043D 25183.58826566 .00000271 00000+0 61348-4 0 9992 2 28893 98.2402 311.9560 0013300 293.4417 66.5386 14.63734251 49372
UTC large
Height (km)
Speed (km/s)
/
Latitude / Longitude
Inclination (degrees)
Orbital Period (minutes)
Azimuth
Elevation
Range (km)
Doppler Factor

Next 0 passes for location: London (51.5072 / 0.1276)

Sorry there are no passes over London.